Time,TemperatureF,DewpointF,PressureIn,WindDirection,WindDirectionDegrees,WindSpeedMPH,WindSpeedGustMPH,Humidity,HourlyPrecipIn,Conditions,Clouds,dailyrainin,SoftwareType,DateUTC
2013-03-16 00:02:00,53.0,45.0,29.70,ENE,64,0.0,0.0,73,0.00,,,0.00,,2013-03-16 05:02:00,
2013-03-16 00:12:00,53.0,45.0,29.70,ENE,64,0.0,0.0,73,0.00,,,0.00,,2013-03-16 05:12:00,
2013-03-16 00:22:00,54.0,45.0,29.70,ENE,62,0.0,0.0,71,0.00,,,0.00,,2013-03-16 05:22:00,
2013-03-16 00:32:00,56.0,46.0,29.70,ENE,63,0.0,0.0,68,0.00,,,0.00,,2013-03-16 05:32:00,
2013-03-16 00:42:00,56.0,46.0,29.70,ENE,63,0.0,0.0,68,0.00,,,0.00,,2013-03-16 05:42:00,
2013-03-16 00:53:00,56.0,44.0,29.70,ENE,69,0.0,0.0,64,0.00,,,0.00,,2013-03-16 05:53:00,
2013-03-16 01:02:00,58.0,45.0,29.70,ENE,77,0.0,0.0,62,0.00,,,0.00,,2013-03-16 06:02:00,
2013-03-16 01:12:00,58.0,45.0,29.70,ENE,77,0.0,0.0,62,0.00,,,0.00,,2013-03-16 06:12:00,
2013-03-16 01:22:00,60.0,45.0,29.69,East,80,0.0,0.0,58,0.00,,,0.00,,2013-03-16 06:22:00,
2013-03-16 01:32:00,62.0,45.0,29.68,ENE,76,0.0,0.0,54,0.00,,,0.00,,2013-03-16 06:32:00,
2013-03-16 01:42:00,62.0,45.0,29.68,ENE,76,0.0,0.0,54,0.00,,,0.00,,2013-03-16 06:42:00,
2013-03-16 01:52:00,64.0,46.0,29.68,East,83,0.0,0.0,52,0.00,,,0.00,,2013-03-16 06:52:00,
2013-03-16 02:02:00,64.0,45.0,29.68,East,86,0.0,0.0,51,0.00,,,0.00,,2013-03-16 07:02:00,
2013-03-16 02:12:00,64.0,45.0,29.68,East,86,0.0,0.0,51,0.00,,,0.00,,2013-03-16 07:12:00,
2013-03-16 02:22:00,65.0,46.0,29.69,East,99,0.0,0.0,51,0.00,,,0.00,,2013-03-16 07:22:00,
2013-03-16 02:32:00,64.0,45.0,29.69,East,96,0.0,0.0,51,0.00,,,0.00,,2013-03-16 07:32:00,
2013-03-16 02:42:00,64.0,45.0,29.69,East,96,0.0,0.0,51,0.00,,,0.00,,2013-03-16 07:42:00,
2013-03-16 02:52:00,64.0,46.0,29.69,ESE,117,0.0,0.0,52,0.00,,,0.00,,2013-03-16 07:52:00,
2013-03-16 03:02:00,64.0,45.0,29.69,ESE,109,0.0,0.0,51,0.00,,,0.00,,2013-03-16 08:02:00,
2013-03-16 03:12:00,64.0,45.0,29.69,ESE,109,0.0,0.0,51,0.00,,,0.00,,2013-03-16 08:12:00,
2013-03-16 03:23:00,65.0,46.0,29.69,ESE,107,0.0,0.0,51,0.00,,,0.00,,2013-03-16 08:23:00,
2013-03-16 03:32:00,65.0,46.0,29.69,East,97,0.0,0.0,51,0.00,,,0.00,,2013-03-16 08:32:00,
2013-03-16 03:42:00,65.0,46.0,29.69,East,97,0.0,0.0,51,0.00,,,0.00,,2013-03-16 08:42:00,
2013-03-16 03:52:00,65.0,47.0,29.69,East,98,0.0,0.0,52,0.00,,,0.00,,2013-03-16 08:52:00,
2013-03-16 04:01:00,65.0,47.0,29.69,East,101,0.0,0.0,52,0.00,,,0.00,,2013-03-16 09:01:00,
2013-03-16 04:12:00,65.0,47.0,29.69,East,101,0.0,0.0,52,0.00,,,0.00,,2013-03-16 09:12:00,
2013-03-16 04:22:00,65.0,47.0,29.70,North,360,0.0,0.0,53,0.00,,,0.00,,2013-03-16 09:22:00,
2013-03-16 04:32:00,64.0,47.0,29.72,North,360,0.0,0.0,54,0.00,,,0.00,,2013-03-16 09:32:00,
2013-03-16 04:42:00,64.0,47.0,29.72,North,360,0.0,0.0,54,0.00,,,0.00,,2013-03-16 09:42:00,
2013-03-16 04:53:00,62.0,46.0,29.72,ESE,115,0.0,0.0,56,0.00,,,0.00,,2013-03-16 09:53:00,
2013-03-16 05:03:00,61.0,46.0,29.72,ESE,117,0.0,0.0,58,0.00,,,0.00,,2013-03-16 10:03:00,
2013-03-16 05:12:00,61.0,46.0,29.72,ESE,117,0.0,0.0,58,0.00,,,0.00,,2013-03-16 10:12:00,
2013-03-16 05:23:00,61.0,47.0,29.73,North,360,0.0,0.0,59,0.00,,,0.00,,2013-03-16 10:23:00,
2013-03-16 05:32:00,60.0,47.0,29.74,North,360,0.0,0.0,62,0.00,,,0.00,,2013-03-16 10:32:00,
2013-03-16 05:42:00,60.0,47.0,29.74,North,360,0.0,0.0,62,0.00,,,0.00,,2013-03-16 10:42:00,
2013-03-16 05:53:00,60.0,48.0,29.75,North,360,0.0,0.0,65,0.00,,,0.00,,2013-03-16 10:53:00,
2013-03-16 06:03:00,59.0,48.0,29.75,North,360,0.0,0.0,67,0.00,,,0.00,,2013-03-16 11:03:00,
2013-03-16 06:12:00,59.0,48.0,29.75,North,360,0.0,0.0,67,0.00,,,0.00,,2013-03-16 11:12:00,
2013-03-16 06:22:00,58.0,47.0,29.77,North,360,0.0,0.0,68,0.00,,,0.00,,2013-03-16 11:22:00,
2013-03-16 06:32:00,57.0,47.0,29.78,North,360,0.0,0.0,69,0.00,,,0.00,,2013-03-16 11:32:00,
2013-03-16 06:42:00,57.0,47.0,29.78,North,360,0.0,0.0,69,0.00,,,0.00,,2013-03-16 11:42:00,
2013-03-16 06:52:00,55.0,45.0,29.79,North,360,0.0,0.0,70,0.00,,,0.00,,2013-03-16 11:52:00,
2013-03-16 07:02:00,54.0,45.0,29.80,North,360,0.0,0.0,71,0.00,,,0.00,,2013-03-16 12:02:00,
2013-03-16 07:12:00,54.0,45.0,29.80,North,360,0.0,0.0,71,0.00,,,0.00,,2013-03-16 12:12:00,
2013-03-16 07:22:00,53.0,44.0,29.81,North,360,0.0,0.0,72,0.00,,,0.00,,2013-03-16 12:22:00,
2013-03-16 07:32:00,52.0,44.0,29.83,North,360,0.0,0.0,73,0.00,,,0.00,,2013-03-16 12:32:00,
2013-03-16 07:42:00,52.0,44.0,29.83,North,360,0.0,0.0,73,0.00,,,0.00,,2013-03-16 12:42:00,
2013-03-16 07:52:00,51.0,43.0,29.83,North,360,0.0,0.0,74,0.00,,,0.00,,2013-03-16 12:52:00,
2013-03-16 08:02:00,50.0,42.0,29.86,North,360,0.0,0.0,74,0.00,,,0.00,,2013-03-16 13:02:00,
2013-03-16 08:12:00,50.0,42.0,29.86,North,360,0.0,0.0,74,0.00,,,0.00,,2013-03-16 13:12:00,
2013-03-16 08:22:00,49.0,42.0,29.86,North,360,0.0,0.0,76,0.00,,,0.00,,2013-03-16 13:22:00,
2013-03-16 08:32:00,48.0,41.0,29.88,North,360,0.0,0.0,77,0.00,,,0.00,,2013-03-16 13:32:00,
2013-03-16 08:42:00,48.0,41.0,29.88,North,360,0.0,0.0,77,0.00,,,0.00,,2013-03-16 13:42:00,
2013-03-16 08:53:00,46.0,40.0,29.91,North,360,0.0,0.0,78,0.00,,,0.00,,2013-03-16 13:53:00,
2013-03-16 09:02:00,45.0,39.0,29.91,North,360,0.0,0.0,80,0.00,,,0.00,,2013-03-16 14:02:00,
2013-03-16 09:12:00,45.0,39.0,29.91,North,360,0.0,0.0,80,0.00,,,0.00,,2013-03-16 14:12:00,
2013-03-16 09:22:00,44.0,39.0,29.93,North,360,0.0,0.0,81,0.00,,,0.00,,2013-03-16 14:22:00,
2013-03-16 09:32:00,44.0,39.0,29.95,North,360,0.0,0.0,81,0.00,,,0.00,,2013-03-16 14:32:00,
2013-03-16 09:42:00,44.0,39.0,29.95,North,360,0.0,0.0,81,0.00,,,0.00,,2013-03-16 14:42:00,
2013-03-16 09:52:00,43.0,38.0,29.96,North,360,0.0,0.0,82,0.00,,,0.00,,2013-03-16 14:52:00,
2013-03-16 10:02:00,43.0,38.0,29.97,North,360,0.0,0.0,83,0.00,,,0.00,,2013-03-16 15:02:00,
2013-03-16 10:12:00,43.0,38.0,29.97,North,360,0.0,0.0,83,0.00,,,0.00,,2013-03-16 15:12:00,
2013-03-16 10:22:00,42.0,37.0,29.97,North,360,0.0,0.0,82,0.00,,,0.00,,2013-03-16 15:22:00,
2013-03-16 10:33:00,42.0,37.0,29.97,North,360,0.0,0.0,83,0.00,,,0.00,,2013-03-16 15:33:00,
2013-03-16 10:43:00,42.0,37.0,29.97,North,360,0.0,0.0,83,0.00,,,0.00,,2013-03-16 15:43:00,
2013-03-16 10:53:00,42.0,37.0,29.98,NNE,19,0.0,0.0,83,0.00,,,0.00,,2013-03-16 15:53:00,
2013-03-16 11:03:00,42.0,37.0,29.97,North,360,0.0,0.0,82,0.00,,,0.00,,2013-03-16 16:03:00,
2013-03-16 11:12:00,42.0,37.0,29.97,North,360,0.0,0.0,82,0.00,,,0.00,,2013-03-16 16:12:00,
2013-03-16 11:22:00,43.0,37.0,29.98,North,360,0.0,0.0,80,0.00,,,0.00,,2013-03-16 16:22:00,
2013-03-16 11:33:00,43.0,37.0,29.99,North,11,0.0,0.0,79,0.00,,,0.00,,2013-03-16 16:33:00,
2013-03-16 11:42:00,43.0,37.0,29.99,North,11,0.0,0.0,79,0.00,,,0.00,,2013-03-16 16:42:00,
2013-03-16 11:53:00,44.0,38.0,30.00,North,360,0.0,0.0,78,0.00,,,0.00,,2013-03-16 16:53:00,
2013-03-16 12:03:00,44.0,38.0,30.00,North,360,0.0,0.0,78,0.00,,,0.00,,2013-03-16 17:03:00,
2013-03-16 12:12:00,44.0,38.0,30.00,North,360,0.0,0.0,78,0.00,,,0.00,,2013-03-16 17:12:00,
2013-03-16 12:23:00,44.0,37.0,30.00,North,360,0.0,0.0,77,0.00,,,0.00,,2013-03-16 17:23:00,
2013-03-16 12:32:00,45.0,38.0,30.02,North,9,0.0,0.0,76,0.00,,,0.00,,2013-03-16 17:32:00,
2013-03-16 12:42:00,45.0,38.0,30.02,North,9,0.0,0.0,76,0.00,,,0.00,,2013-03-16 17:42:00,
2013-03-16 12:53:00,45.0,38.0,30.03,North,360,0.0,0.0,75,0.00,,,0.00,,2013-03-16 17:53:00,
2013-03-16 13:02:00,45.0,37.0,30.03,North,360,0.0,0.0,74,0.00,,,0.00,,2013-03-16 18:02:00,
2013-03-16 13:13:00,45.0,37.0,30.03,North,360,0.0,0.0,74,0.00,,,0.00,,2013-03-16 18:13:00,
2013-03-16 13:22:00,46.0,38.0,30.03,North,360,0.0,0.0,74,0.00,,,0.00,,2013-03-16 18:22:00,
2013-03-16 13:32:00,46.0,38.0,30.03,North,360,0.0,0.0,73,0.00,,,0.00,,2013-03-16 18:32:00,
2013-03-16 13:42:00,46.0,38.0,30.03,North,360,0.0,0.0,73,0.00,,,0.00,,2013-03-16 18:42:00,
2013-03-16 13:53:00,46.0,38.0,30.03,North,360,0.0,0.0,73,0.00,,,0.00,,2013-03-16 18:53:00,
2013-03-16 14:02:00,46.0,38.0,30.03,North,360,0.0,0.0,73,0.00,,,0.00,,2013-03-16 19:02:00,
2013-03-16 14:12:00,46.0,38.0,30.03,North,360,0.0,0.0,73,0.00,,,0.00,,2013-03-16 19:12:00,
2013-03-16 14:22:00,46.0,38.0,30.02,NNE,13,0.0,0.0,73,0.00,,,0.00,,2013-03-16 19:22:00,
2013-03-16 14:32:00,46.0,37.0,30.04,North,360,0.0,0.0,71,0.00,,,0.00,,2013-03-16 19:32:00,
2013-03-16 14:42:00,46.0,37.0,30.04,North,360,0.0,0.0,71,0.00,,,0.00,,2013-03-16 19:42:00,
2013-03-16 14:53:00,46.0,37.0,30.04,North,360,0.0,0.0,71,0.00,,,0.00,,2013-03-16 19:53:00,
2013-03-16 15:02:00,45.0,36.0,30.04,North,360,0.0,0.0,71,0.00,,,0.00,,2013-03-16 20:02:00,
2013-03-16 15:12:00,45.0,36.0,30.04,North,360,0.0,0.0,71,0.00,,,0.00,,2013-03-16 20:12:00,
2013-03-16 15:22:00,45.0,37.0,30.03,North,9,0.0,0.0,72,0.00,,,0.00,,2013-03-16 20:22:00,
2013-03-16 15:32:00,45.0,37.0,30.03,North,360,0.0,0.0,72,0.00,,,0.00,,2013-03-16 20:32:00,
2013-03-16 15:42:00,45.0,37.0,30.03,North,360,0.0,0.0,72,0.00,,,0.00,,2013-03-16 20:42:00,
2013-03-16 15:52:00,45.0,37.0,30.03,North,360,0.0,0.0,72,0.00,,,0.00,,2013-03-16 20:52:00,
2013-03-16 16:02:00,45.0,37.0,30.04,NNE,15,0.0,0.0,72,0.00,,,0.00,,2013-03-16 21:02:00,
2013-03-16 16:12:00,45.0,37.0,30.04,NNE,15,0.0,0.0,72,0.00,,,0.00,,2013-03-16 21:12:00,
2013-03-16 16:22:00,45.0,37.0,30.03,NNE,13,0.0,0.0,72,0.00,,,0.00,,2013-03-16 21:22:00,
2013-03-16 16:32:00,45.0,37.0,30.03,North,360,0.0,0.0,72,0.00,,,0.00,,2013-03-16 21:32:00,
2013-03-16 16:43:00,45.0,37.0,30.03,North,360,0.0,0.0,72,0.00,,,0.00,,2013-03-16 21:43:00,
2013-03-16 16:53:00,45.0,37.0,30.04,NNE,17,0.0,0.0,72,0.00,,,0.00,,2013-03-16 21:53:00,
2013-03-16 17:03:00,44.0,36.0,30.05,NNE,15,0.0,0.0,72,0.00,,,0.00,,2013-03-16 22:03:00,
2013-03-16 17:12:00,44.0,36.0,30.05,NNE,15,0.0,0.0,72,0.00,,,0.00,,2013-03-16 22:12:00,
2013-03-16 17:22:00,44.0,36.0,30.06,North,360,0.0,0.0,72,0.00,,,0.00,,2013-03-16 22:22:00,
2013-03-16 17:33:00,44.0,36.0,30.06,North,5,0.0,0.0,73,0.00,,,0.00,,2013-03-16 22:33:00,
2013-03-16 17:42:00,44.0,36.0,30.06,North,5,0.0,0.0,73,0.00,,,0.00,,2013-03-16 22:42:00,
2013-03-16 17:52:00,43.0,36.0,30.05,NNE,14,0.0,0.0,75,0.00,,,0.00,,2013-03-16 22:52:00,
2013-03-16 18:02:00,43.0,37.0,30.05,NNE,14,0.0,0.0,78,0.00,,,0.00,,2013-03-16 23:02:00,
2013-03-16 18:12:00,43.0,37.0,30.05,NNE,14,0.0,0.0,78,0.00,,,0.00,,2013-03-16 23:12:00,
2013-03-16 18:22:00,43.0,37.0,30.06,North,360,0.0,0.0,80,0.01,,,0.01,,2013-03-16 23:22:00,
2013-03-16 18:32:00,42.0,37.0,30.06,NNE,14,0.0,0.0,81,0.01,,,0.01,,2013-03-16 23:32:00,
2013-03-16 18:42:00,42.0,37.0,30.06,NNE,14,0.0,0.0,81,0.01,,,0.01,,2013-03-16 23:42:00,
2013-03-16 18:52:00,42.0,37.0,30.05,NNE,12,0.0,0.0,82,0.01,,,0.01,,2013-03-16 23:52:00,
2013-03-16 19:01:00,41.0,36.0,30.06,NNE,19,0.0,0.0,83,0.01,,,0.01,,2013-03-17 00:01:00,
2013-03-16 19:12:00,41.0,36.0,30.06,NNE,19,0.0,0.0,83,0.01,,,0.01,,2013-03-17 00:12:00,
2013-03-16 19:22:00,41.0,37.0,30.06,North,360,0.0,0.0,84,0.00,,,0.01,,2013-03-17 00:22:00,
2013-03-16 19:32:00,41.0,37.0,30.06,North,9,0.0,0.0,85,0.01,,,0.02,,2013-03-17 00:32:00,
2013-03-16 19:42:00,41.0,37.0,30.06,North,9,0.0,0.0,85,0.01,,,0.02,,2013-03-17 00:42:00,
2013-03-16 19:52:00,41.0,37.0,30.06,North,360,0.0,0.0,85,0.01,,,0.02,,2013-03-17 00:52:00,
2013-03-16 20:02:00,40.0,36.0,30.06,North,360,0.0,0.0,86,0.01,,,0.02,,2013-03-17 01:02:00,
2013-03-16 20:12:00,40.0,36.0,30.06,North,360,0.0,0.0,86,0.01,,,0.02,,2013-03-17 01:12:00,
2013-03-16 20:22:00,40.0,36.0,30.06,NNE,26,0.0,0.0,86,0.01,,,0.02,,2013-03-17 01:22:00,
2013-03-16 20:32:00,40.0,36.0,30.06,NNE,25,0.0,0.0,86,0.00,,,0.02,,2013-03-17 01:32:00,
2013-03-16 20:42:00,40.0,36.0,30.06,NNE,25,0.0,0.0,86,0.00,,,0.02,,2013-03-17 01:42:00,
2013-03-16 20:53:00,40.0,36.0,30.08,NNE,26,0.0,0.0,87,0.00,,,0.02,,2013-03-17 01:53:00,
2013-03-16 21:02:00,40.0,36.0,30.08,NNE,26,0.0,0.0,87,0.01,,,0.03,,2013-03-17 02:02:00,
2013-03-16 21:12:00,40.0,36.0,30.08,NNE,26,0.0,0.0,87,0.01,,,0.03,,2013-03-17 02:12:00,
2013-03-16 21:22:00,40.0,36.0,30.09,NNE,19,0.0,0.0,87,0.01,,,0.03,,2013-03-17 02:22:00,
2013-03-16 21:33:00,40.0,36.0,30.09,NNE,19,0.0,0.0,87,0.01,,,0.03,,2013-03-17 02:33:00,
2013-03-16 21:42:00,40.0,36.0,30.09,NNE,19,0.0,0.0,87,0.01,,,0.03,,2013-03-17 02:42:00,
2013-03-16 21:53:00,40.0,37.0,30.09,NNE,28,0.0,0.0,88,0.01,,,0.03,,2013-03-17 02:53:00,
2013-03-16 22:02:00,39.0,36.0,30.08,NNE,30,0.0,0.0,88,0.00,,,0.03,,2013-03-17 03:02:00,
2013-03-16 22:12:00,39.0,36.0,30.08,NNE,30,0.0,0.0,88,0.00,,,0.03,,2013-03-17 03:12:00,
2013-03-16 22:22:00,39.0,36.0,30.08,North,9,0.0,0.0,88,0.00,,,0.03,,2013-03-17 03:22:00,
2013-03-16 22:33:00,39.0,36.0,30.08,NE,37,0.0,0.0,88,0.00,,,0.03,,2013-03-17 03:33:00,
2013-03-16 22:43:00,39.0,36.0,30.08,NE,37,0.0,0.0,88,0.00,,,0.03,,2013-03-17 03:43:00,
2013-03-16 22:53:00,39.0,36.0,30.09,NNE,31,0.0,0.0,88,0.00,,,0.03,,2013-03-17 03:53:00,
2013-03-16 23:03:00,39.0,36.0,30.09,NNE,31,0.0,0.0,88,0.01,,,0.04,,2013-03-17 04:03:00,
2013-03-16 23:12:00,39.0,36.0,30.09,NNE,31,0.0,0.0,88,0.01,,,0.04,,2013-03-17 04:12:00,
2013-03-16 23:23:00,39.0,36.0,30.10,NE,35,0.0,0.0,88,0.01,,,0.04,,2013-03-17 04:23:00,
2013-03-16 23:32:00,39.0,36.0,30.09,NNE,26,0.0,0.0,89,0.01,,,0.04,,2013-03-17 04:32:00,
2013-03-16 23:42:00,39.0,36.0,30.09,NNE,26,0.0,0.0,89,0.01,,,0.04,,2013-03-17 04:42:00,
2013-03-16 23:53:00,39.0,36.0,30.08,NNE,21,0.0,0.0,89,0.01,,,0.04,,2013-03-17 04:53:00,